Location: Maddington
(51.2000°N, 1.9167°W)
Time: 21:43:45
(UTC+00:00)

NOSS 3-2 (A) - Pass Details

Date: 25 January 2021
Orbit: 783 x 1425 km, 63.4° (Epoch: 07 March)

Event Time Altitude Azimuth Distance (km) Brightness Sun altitude
Rises 06:27:41 0° 222° (SW) 3,359 6.0 -13.4°
Reaches altitude 10° 06:30:00 10° 223° (SW) 2,481 5.4 -13.1°
Maximum altitude 06:35:44 90° 311° (NW) 945 3.4 -12.2°
Drops below altitude 10° 06:42:28 10° 45° (NE) 2,887 6.4 -11.2°
Sets 06:45:20 0° 46° (NE) 3,948 7.1 -10.8°
